Wind_Speed
3 2 2 2 3 3 2 2 2 2 2 2 3 3 3 3 3 4 4 4 4 4 5 6 6 6 6 7 7 6 7 7 7 7 7 7 6 6 6 6 6 6 6
3 3 3 3 4 3 3 3 3 3 3 3 3 3 4 4 4 5 5 5 5 6 6 6 6 7 7 7 7 7 8 8 8 8 8 8 7 7 8 7 7 7 7
4 4 4 4 4 4 4 3 3 3 4 4 4 4 5 5 5 6 6 6 6 6 6 7 7 7 7 7 7 7 8 8 8 8 7 7 8 8 9 9 8 8 8
4 4 4 4 4 4 4 4 4 4 4 5 5 5 5 5 6 6 6 6 6 6 7 7 7 8 8 8 8 8 8 8 9 8 8 8 9 9 9 8 8 9 10
4 4 4 4 3 4 4 4 4 5 5 5 5 5 5 6 6 7 7 7 7 7 7 8 8 8 8 9 9 9 9 9 9 9 9 9 9 9 9 9 10 10 11
4 4 4 4 4 4 4 4 5 5 5 5 6 6 6 6 6 7 7 7 7 7 8 8 8 8 9 9 10 9 10 10 10 10 10 10 10 10 10 10 11 11 12
5 5 5 5 5 4 5 5 5 6 6 6 6 7 7 7 7 7 7 8 7 8 8 8 8 9 9 10 10 10 10 10 10 10 10 10 11 11 11 12 12 12 12
4 5 5 5 6 5 5 5 6 6 6 6 7 7 7 7 7 8 8 8 9 9 9 8 8 9 9 10 10 10 11 11 11 11 11 11 11 11 12 13 12 12 12
5 4 4 5 6 6 6 5 5 6 6 6 6 7 7 8 8 9 9 9 9 9 9 9 9 9 9 10 11 11 11 11 11 11 12 12 12 12 12 12 12 12 12
5 5 4 4 5 5 6 6 6 6 7 7 7 8 8 8 9 9 9 9 9 8 8 9 9 9 9 10 10 10 11 11 11 11 12 12 12 13 13 13 12 12 12
5 5 5 4 5 5 6 5 6 6 6 6 7 7 8 8 8 9 9 8 8 8 9 9 9 9 10 10 10 10 10 11 12 12 12 12 13 13 13 13 12 12 12
6 6 6 5 5 5 6 5 5 5 5 6 6 7 8 8 8 9 8 8 8 8 8 8 9 9 10 10 10 11 11 11 12 12 12 12 12 13 13 13 12 11 11
6 6 5 5 5 5 6 6 6 6 6 6 6 7 8 8 8 8 8 8 8 8 8 9 9 9 9 10 10 10 11 11 11 12 12 12 12 13 13 12 11 11 11
7 7 6 6 6 6 6 7 7 7 7 7 7 7 8 8 8 7 8 9 10 10 9 9 10 10 10 10 10 11 11 12 12 12 12 12 12 13 13 12 11 11 11
7 7 7 7 7 8 7 8 8 8 8 8 8 8 8 8 8 8 8 9 10 11 10 11 11 11 11 11 11 12 12 12 12 12 13 13 13 13 13 13 13 11 11
7 8 8 8 8 8 8 8 9 9 8 8 9 8 8 8 8 9 10 10 10 11 11 12 12 12 12 12 12 12 13 13 13 13 13 13 13 13 14 14 14 13 11
9 9 8 8 8 8 9 9 10 10 10 9 10 9 9 9 10 9 10 11 11 11 11 12 12 13 13 12 13 13 14 14 13 13 14 14 14 14 15 14 14 14 12
10 10 10 10 10 10 10 10 11 11 11 11 11 11 11 11 10 10 10 11 11 11 11 12 12 13 13 13 13 13 14 14 14 14 15 15 16 15 15 15 14 14 13
11 11 11 12 12 11 11 12 12 12 12 12 12 12 12 12 11 11 12 12 12 12 13 13 13 13 13 13 14 14 14 15 15 15 16 16 16 15 15 15 14 15 15
12 12 12 13 13 12 12 12 13 13 13 13 13 13 13 13 13 13 13 14 14 14 13 13 14 14 15 15 15 15 15 15 16 17 16 16 16 16 16 16 16 16 16
13 13 13 13 13 13 13 14 14 14 14 14 14 14 14 14 14 14 14 15 15 15 14 15 15 15 16 16 16 16 16 16 17 17 17 17 17 17 17 17 17 17 17
14 14 13 13 14 14 14 15 15 15 15 15 15 15 15 15 15 15 16 16 15 15 15 16 16 16 16 16 17 17 17 17 17 18 18 18 18 18 18 18 18 18 17
16 16 15 15 15 15 16 16 16 16 17 16 16 16 16 16 16 17 17 16 16 16 16 17 17 17 17 17 18 18 18 18 18 18 18 18 18 18 19 19 19 19 19
16 17 16 16 17 17 17 17 17 17 17 17 17 17 17 17 17 17 18 17 18 18 18 18 18 19 19 19 19 18 18 19 18 18 18 19 19 19 19 19 20 20 20
17 16 17 17 18 18 18 17 18 18 18 18 18 18 19 19 19 19 19 19 19 19 19 19 19 20 20 19 19 19 19 19 19 19 19 19 19 19 19 19 20 20 20
17 17 17 18 18 18 19 19 19 19 19 19 19 19 19 19 19 20 20 19 19 19 19 20 20 20 20 19 20 20 20 20 20 20 19 19 19 19 19 20 20 20 20
Wind_Direction
219 223 242 250 253 255 264 284 294 292 292 295 299 308 309 312 321 316 305 306 307 307 307 306 305 304 300 295 294 293 292 294 295 294 288 285 283 282 284 289 288 286 286
225 228 239 249 250 253 264 270 285 284 289 297 289 297 300 302 305 306 300 298 298 298 300 300 299 299 295 291 291 292 293 291 291 290 285 278 280 283 285 289 289 289 286
235 238 241 249 248 252 261 270 275 277 280 286 287 290 293 296 298 300 300 293 293 292 292 292 292 296 294 291 290 291 294 291 291 292 282 272 277 280 284 286 288 289 287
232 239 242 247 249 250 255 261 266 274 280 284 287 290 294 296 297 296 299 293 290 290 290 291 296 298 296 292 290 291 293 293 293 293 284 279 280 280 282 286 289 290 287
237 240 244 243 246 256 258 255 266 273 277 284 291 293 296 299 300 298 298 297 292 288 288 291 296 298 295 293 289 288 290 292 293 293 289 285 282 281 283 287 289 288 287
242 240 245 251 255 261 266 265 267 273 278 286 295 294 292 296 297 298 299 299 298 292 289 290 295 296 295 292 289 288 289 288 290 291 290 286 284 285 286 287 289 288 288
248 243 243 248 253 262 265 263 269 276 279 284 291 292 291 294 294 296 299 301 302 299 294 290 290 291 294 292 289 289 288 286 286 286 289 287 287 288 289 289 287 289 292
248 244 247 250 250 252 261 267 265 275 277 282 289 293 294 294 293 293 295 295 297 294 289 288 290 291 293 292 289 287 286 287 286 284 286 289 289 288 288 288 287 289 291
252 248 253 256 255 252 258 269 272 273 274 278 283 290 291 291 291 292 292 289 289 287 285 288 291 291 294 296 293 291 290 289 288 288 287 287 288 288 288 288 289 293 294
255 258 263 267 253 256 259 261 266 271 272 275 279 285 285 285 289 289 290 288 285 282 283 287 290 292 294 295 294 293 292 290 291 290 290 287 287 288 288 290 292 295 295
249 258 264 263 271 269 261 261 259 266 270 271 277 283 283 283 290 289 290 289 287 283 284 286 289 292 295 295 294 292 291 292 293 291 291 291 290 289 290 291 290 293 292
253 256 254 257 267 273 273 271 265 269 270 271 275 279 281 283 288 289 288 287 284 284 286 288 290 290 293 293 293 291 290 291 291 292 290 290 289 288 289 290 289 292 295
253 256 258 267 270 271 272 276 277 280 281 289 289 280 282 286 288 287 282 280 282 287 288 287 287 290 293 293 293 291 290 290 291 291 290 289 289 288 287 286 286 289 292
262 261 263 266 264 267 269 271 275 280 283 289 292 294 291 294 296 293 280 279 279 280 285 287 288 289 290 291 292 290 288 288 290 292 292 292 290 288 287 288 286 287 288
271 270 269 268 267 267 268 270 273 275 279 286 290 295 297 300 297 295 291 287 283 282 284 288 291 289 288 290 289 289 290 288 290 291 292 290 289 288 288 288 286 287 286
265 263 266 268 271 273 274 274 274 274 275 279 283 287 292 296 297 296 292 288 283 282 286 291 290 288 288 289 290 290 288 288 289 287 287 287 287 287 287 286 286 285 284
260 262 266 268 272 274 273 272 272 273 274 276 279 281 287 289 292 293 289 286 285 286 288 289 291 291 290 289 289 290 290 287 286 286 286 287 288 287 285 284 284 284 280
261 264 267 270 273 274 272 271 271 273 273 275 279 281 284 287 288 289 290 289 286 287 288 290 292 293 292 290 289 290 289 287 286 286 286 288 289 288 285 283 281 280 278
263 264 267 270 271 271 272 273 275 275 273 272 276 279 282 283 285 287 290 290 291 289 287 287 289 290 291 290 290 291 290 288 289 289 290 290 290 288 284 281 278 276 277
263 263 266 268 269 269 271 272 274 274 275 272 275 279 281 281 282 285 286 289 292 291 290 288 289 290 290 290 292 293 291 290 289 289 290 290 289 286 282 280 277 275 275
264 264 262 265 266 267 270 271 272 274 274 275 277 279 280 280 279 279 283 288 289 288 290 289 290 290 292 292 292 293 291 290 291 292 291 289 287 284 282 280 277 275 274
262 264 262 265 267 267 268 269 270 273 274 274 275 276 276 277 279 279 281 286 287 288 289 289 289 290 291 291 291 292 293 291 292 293 293 289 285 283 281 279 276 274 273
260 262 262 264 265 267 267 270 272 274 274 276 277 275 275 277 280 281 283 284 285 285 287 288 287 288 287 289 290 289 291 292 291 291 291 288 286 284 281 279 276 275 273
262 262 262 264 265 267 269 271 272 274 274 275 276 274 276 280 280 281 282 283 283 283 286 287 287 286 287 288 289 289 290 292 293 291 288 286 285 284 283 280 278 276 274
262 264 266 268 268 269 270 271 274 275 275 275 276 275 277 278 280 281 280 280 281 282 284 287 288 288 287 287 286 288 290 291 292 293 291 288 286 283 281 280 278 277 275
263 266 268 269 270 270 271 272 274 276 277 277 277 276 277 279 279 278 277 278 280 282 283 285 289 288 287 287 287 287 288 289 289 292 293 291 286 282 280 278 277 277 275
Height
5869 5869 5869 5870 5870 5870 5870 5870 5870 5870 5870 5871 5871 5870 5871 5870 5870 5871 5871 5871 5871 5871 5871 5871 5872 5872 5871 5872 5872 5871 5871 5871 5870 5870 5870 5869 5869 5870 5870 5870 5870 5870 5869
5868 5869 5869 5869 5869 5870 5870 5870 5870 5870 5870 5870 5870 5870 5870 5870 5870 5870 5870 5870 5870 5870 5870 5870 5870 5870 5870 5870 5870 5870 5870 5870 5869 5868 5867 5867 5868 5868 5868 5868 5868 5868 5868
5868 5868 5868 5869 5869 5869 5869 5869 5869 5869 5869 5869 5869 5869 5869 5869 5869 5869 5869 5869 5869 5869 5869 5869 5869 5869 5869 5869 5869 5868 5868 5868 5867 5866 5865 5865 5866 5867 5867 5867 5866 5866 5866
5867 5867 5867 5868 5868 5868 5868 5868 5868 5869 5869 5868 5868 5868 5868 5868 5868 5868 5868 5868 5868 5868 5868 5868 5868 5867 5867 5867 5867 5867 5867 5866 5866 5865 5864 5864 5865 5865 5865 5865 5864 5864 5864
5866 5866 5867 5867 5867 5867 5867 5867 5868 5868 5868 5868 5868 5867 5867 5867 5867 5867 5866 5866 5866 5866 5866 5866 5866 5866 5866 5865 5865 5865 5865 5865 5864 5864 5864 5863 5863 5863 5863 5863 5863 5862 5862
5865 5865 5866 5866 5866 5866 5866 5866 5867 5867 5867 5867 5867 5866 5866 5866 5866 5865 5865 5865 5865 5865 5865 5865 5865 5864 5864 5864 5863 5863 5863 5863 5862 5862 5862 5862 5861 5861 5861 5861 5860 5860 5859
5864 5864 5865 5865 5865 5865 5865 5865 5866 5866 5865 5866 5865 5865 5864 5864 5864 5864 5864 5863 5863 5863 5863 5863 5863 5863 5862 5862 5861 5861 5861 5860 5860 5860 5860 5860 5859 5859 5858 5858 5858 5857 5857
5863 5863 5864 5864 5864 5864 5864 5864 5864 5864 5864 5864 5864 5863 5863 5863 5862 5862 5862 5861 5861 5861 5861 5860 5861 5860 5860 5860 5860 5859 5859 5859 5858 5858 5858 5858 5857 5857 5856 5856 5855 5855 5854
5862 5862 5862 5862 5863 5863 5863 5863 5863 5863 5863 5862 5862 5862 5861 5861 5861 5860 5860 5859 5859 5859 5859 5859 5859 5858 5858 5858 5857 5857 5857 5856 5856 5856 5855 5855 5855 5854 5854 5853 5852 5851 5851
5861 5861 5861 5861 5861 5861 5861 5861 5861 5861 5861 5861 5860 5860 5860 5859 5859 5858 5858 5857 5857 5856 5856 5856 5857 5856 5856 5856 5855 5855 5854 5854 5854 5853 5853 5852 5852 5852 5851 5850 5850 5849 5848
5859 5859 5860 5860 5860 5860 5860 5860 5860 5860 5859 5859 5859 5858 5858 5857 5857 5856 5856 5855 5854 5854 5854 5854 5854 5854 5854 5853 5853 5853 5852 5852 5851 5851 5850 5850 5849 5849 5848 5848 5847 5847 5846
5858 5858 5858 5858 5858 5858 5858 5858 5858 5858 5858 5857 5857 5857 5856 5856 5855 5854 5853 5853 5853 5852 5852 5852 5852 5852 5852 5851 5851 5850 5850 5849 5849 5848 5848 5847 5847 5846 5846 5845 5845 5844 5844
5856 5857 5857 5857 5857 5857 5857 5857 5856 5856 5856 5856 5855 5855 5854 5854 5853 5852 5852 5851 5851 5851 5850 5850 5850 5850 5849 5849 5848 5847 5847 5847 5846 5846 5845 5844 5844 5843 5843 5842 5842 5842 5841
5855 5855 5855 5855 5855 5855 5855 5855 5855 5854 5854 5854 5854 5853 5852 5852 5851 5851 5850 5849 5849 5849 5849 5848 5848 5847 5847 5846 5846 5845 5844 5844 5844 5843 5842 5841 5841 5840 5840 5839 5839 5839 5838
5852 5853 5853 5853 5853 5853 5853 5853 5853 5853 5852 5852 5852 5851 5851 5850 5850 5849 5848 5848 5847 5846 5846 5846 5845 5845 5844 5844 5843 5842 5842 5841 5841 5840 5839 5839 5838 5837 5837 5836 5836 5836 5836
5850 5850 5851 5851 5851 5851 5851 5851 5851 5850 5850 5850 5850 5849 5849 5848 5848 5847 5846 5846 5845 5844 5844 5843 5843 5842 5841 5841 5840 5839 5839 5838 5838 5837 5836 5836 5835 5834 5833 5833 5833 5833 5833
5848 5848 5848 5848 5848 5848 5848 5848 5848 5848 5848 5847 5847 5846 5846 5846 5845 5845 5844 5844 5843 5842 5841 5840 5840 5839 5839 5838 5837 5836 5836 5835 5834 5834 5833 5832 5831 5831 5830 5829 5829 5829 5829
5846 5846 5846 5846 5846 5846 5845 5845 5845 5845 5845 5845 5844 5844 5843 5843 5843 5842 5842 5841 5840 5839 5838 5838 5837 5836 5836 5835 5834 5833 5832 5831 5831 5830 5829 5828 5827 5826 5826 5825 5825 5826 5826
5843 5843 5843 5843 5843 5843 5842 5842 5842 5842 5842 5841 5841 5841 5840 5840 5839 5839 5839 5838 5837 5836 5836 5835 5834 5833 5832 5832 5831 5830 5829 5828 5827 5826 5825 5824 5823 5822 5821 5821 5821 5822 5822
5840 5840 5840 5840 5840 5839 5839 5839 5839 5839 5838 5838 5838 5837 5837 5836 5836 5836 5835 5834 5834 5833 5832 5832 5831 5830 5829 5828 5827 5826 5825 5824 5823 5822 5821 5819 5818 5817 5817 5816 5816 5817 5818
5836 5836 5836 5836 5836 5836 5836 5836 5835 5835 5835 5834 5834 5834 5833 5833 5832 5832 5831 5831 5830 5829 5829 5828 5827 5826 5825 5824 5823 5822 5821 5819 5818 5817 5816 5815 5813 5813 5812 5812 5812 5812 5813
5833 5832 5832 5832 5832 5832 5832 5832 5832 5831 5831 5831 5830 5830 5829 5829 5828 5828 5827 5826 5826 5825 5825 5824 5823 5822 5821 5820 5819 5818 5817 5816 5814 5812 5810 5809 5808 5807 5807 5806 5806 5807 5807
5829 5828 5829 5828 5829 5828 5828 5828 5828 5827 5827 5826 5826 5825 5825 5824 5824 5823 5823 5822 5821 5821 5820 5819 5818 5817 5816 5815 5814 5813 5812 5811 5810 5808 5806 5804 5803 5802 5801 5800 5800 5801 5801
5824 5824 5824 5824 5824 5824 5823 5823 5823 5823 5822 5822 5822 5821 5820 5820 5819 5818 5818 5818 5817 5816 5815 5814 5813 5812 5811 5810 5808 5807 5806 5804 5803 5803 5801 5799 5797 5796 5795 5794 5794 5794 5795
5820 5820 5819 5819 5819 5819 5818 5818 5818 5818 5817 5817 5816 5816 5815 5815 5814 5813 5813 5812 5812 5811 5810 5809 5808 5806 5805 5804 5803 5802 5800 5799 5797 5796 5795 5793 5791 5789 5788 5787 5787 5787 5788
5815 5815 5815 5814 5814 5813 5813 5813 5813 5812 5812 5811 5811 5811 5810 5809 5809 5808 5807 5806 5806 5805 5804 5803 5802 5801 5799 5798 5797 5796 5794 5793 5791 5789 5788 5786 5785 5783 5782 5781 5780 5780 5781